Location: Vancouver
(49.2500°N, 123.1330°W)
Time: 20:45:59
(UTC-07:00)

A-11 Canister half - Visible Passes

Search period start: 18 August 2017 00:00
Search period end: 28 August 2017 00:00
Orbit: 1524 x 1685 km, 47.3° (Epoch: 18 August)

Date Brightness Start Highest point End Pass type
(mag) Time Alt. Az. Time Alt. Az. Time Alt. Az.
18 Aug 9.0 00:44:59 10° W 00:55:05 70° SSW 01:01:03 28° SE visible
18 Aug 9.5 02:50:20 10° WNW 03:11:02 - SSE 02:59:08 36° SW visible
18 Aug 9.1 22:18:17 10° WSW 22:28:26 80° S 22:38:36 10° E visible
19 Aug 9.0 00:23:22 10° W 00:33:28 71° SSW 00:38:35 34° SE visible
19 Aug 9.5 02:28:40 10° WNW 02:36:45 37° SW 02:36:45 37° SW visible
19 Aug 9.1 21:56:40 10° WSW 22:06:48 79° S 22:16:59 10° E visible
20 Aug 9.0 00:01:43 10° W 00:11:51 72° SSW 00:16:47 35° ESE visible
20 Aug 9.5 02:07:00 10° WNW 02:14:59 38° SW 02:14:59 38° SW visible
20 Aug 9.1 21:35:03 10° WSW 21:45:10 79° S 21:55:21 10° E visible
20 Aug 9.0 23:40:06 10° W 23:50:14 73° SSW 23:55:18 35° ESE visible
21 Aug 9.5 01:45:20 10° WNW 01:53:31 40° SW 01:53:31 40° SW visible
21 Aug 9.2 21:13:27 10° WSW 21:23:32 78° S 21:33:43 10° E visible
21 Aug 9.0 23:18:29 10° W 23:28:36 74° SSW 23:33:59 33° ESE visible
22 Aug 9.5 01:23:41 10° WNW 01:32:13 42° SW 01:32:13 42° SW visible
22 Aug 9.2 20:51:51 10° WSW 21:01:54 77° S 21:12:05 10° E visible
22 Aug 9.1 22:56:51 10° W 23:06:59 75° SSW 23:12:48 30° ESE visible
23 Aug 9.4 01:02:02 10° WNW 01:11:02 44° SW 01:11:02 44° SW visible
23 Aug 9.2 20:30:15 10° WSW 20:40:16 77° SSE 20:50:27 10° E visible
23 Aug 9.1 22:35:14 10° W 22:45:21 76° SSW 22:51:42 27° ESE visible
24 Aug 9.4 00:40:23 10° WNW 00:49:49 45° SW 00:49:57 45° SSW visible
24 Aug 10.8 02:47:40 10° W 02:48:12 11° W 02:48:12 11° W visible
24 Aug 9.1 22:13:37 10° W 22:23:44 77° SSW 22:30:41 24° ESE visible
25 Aug 9.3 00:18:44 10° WNW 00:28:15 47° SW 00:28:56 46° SSW visible
25 Aug 10.7 02:25:45 10° W 02:27:11 13° W 02:27:11 13° W visible
25 Aug 9.1 21:51:59 10° W 22:02:06 78° S 22:09:44 21° ESE visible
25 Aug 9.3 23:57:05 10° WNW 00:06:40 48° SSW 00:07:58 46° SSW visible
26 Aug 10.7 02:03:52 10° W 02:06:14 14° WSW 02:06:14 14° WSW visible
26 Aug 9.2 21:30:22 10° W 21:40:28 78° S 21:48:48 17° ESE visible
26 Aug 9.3 23:35:28 10° WNW 23:45:05 50° SSW 23:47:04 45° S visible
27 Aug 10.6 01:42:02 10° W 01:45:20 16° WSW 01:45:20 16° WSW visible
27 Aug 9.2 21:08:45 10° W 21:18:50 79° S 21:27:57 14° ESE visible
27 Aug 9.4 23:13:49 10° WNW 23:23:29 52° SSW 23:26:12 43° S visible
